Location: *
(60.1759°S, 155.0663°W)
Time: 06:26:51
(UTC+00:00)

CZ-4B R/B - Pass Details

Date: 17 September 2019
Orbit: 496 x 648 km, 97.7° (Epoch: 15 October)

Event Time Altitude Azimuth Distance (km) Brightness Sun altitude
Exits shadow 14:19:26 17° 344° (NNW) 1,449 5.6 -15.9°
Maximum altitude 14:22:12 43° 278° (W) 829 4.2 -15.6°
Drops below altitude 10° 14:26:16 10° 205° (SSW) 1,963 6.6 -15.1°
Sets 14:28:37 0° 198° (SSW) 2,900 7.6 -14.8°
